Retour au catalogue

SL-12 R/B(2)

ActifGEO
NORAD 19020·ROCKET BODY·🇷🇺 Russia

Lancé Mar 31, 1988 depuis Baikonur Cosmodrome

Loading…

TLE

FraisSource: Space-Track

Époque: Aug 28, 2026, 19:59 UTC

1 19020U 88028D   26240.83279073 -.00000067  00000-0  00000+0 0  9994
2 19020  12.6284 330.3026 0018986 134.5110 215.3561  0.97783148137170

Suivez SL-12 R/B(2) en temps réel avec AllMySat

Download on the App Store